#timestamp,LO_Frequency,Hit,StdDev 
1701813615.7,286046997.1,N
1701813635.5,286046996.9,N
1701813655.3,286046996.7,N
1701813675.2,286046999.2,N
1701813695.9,286047001.2,N
1701813715.7,286047000.3,N
1701813735.6,286047001.0,N
1701813755.4,286047000.7,N
1701813775.2,286047002.7,N
1701813795.0,286047002.0,N
1701813796.0,286047002.0,N
1701813815.8,286047004.2,N
1701813835.6,286047002.6,N
1701813855.5,286047004.0,N
1701813875.3,286047000.7,N
1701813895.1,286046998.2,N
1701813915.9,286046998.5,N
1701813935.7,286047000.6,N
1701813955.5,286047002.4,N
1701813975.3,286047001.9,N
1701813995.2,286047001.4,N
1701814015.0,286046999.7,N
1701814015.9,286046999.7,N
1701814035.8,286047004.4,N
1701814055.6,286047001.3,N
1701814075.4,286047001.3,N
1701814095.2,286047004.0,N
1701814115.1,286047002.6,N
1701814116.0,286047002.6,N
1701814135.8,286047002.4,N
1701814155.7,286046998.1,N
1701814175.5,286046999.3,N
1701814195.3,286046999.1,N
1701814215.1,286046998.2,N
1701814235.9,286047001.1,N
1701814255.7,286047000.0,N
1701814275.5,286047004.0,N
1701814295.4,286047004.0,N
1701814315.2,286047002.9,N
1701814335.0,286047001.3,N
1701814335.9,286047001.3,N
1701814355.8,286047005.7,N
1701814375.6,286047004.5,N
1701814395.4,286047007.8,Y
1701814415.3,286047006.1,P
1701814435.1,286047006.6,N
1701814455.8,286047005.4,N
1701814475.7,286047001.7,N
1701814495.5,286046999.9,N
1701814515.3,286047001.0,N
1701814535.2,286047001.1,N
1701814555.0,286047002.3,N
1701814555.9,286047002.3,N
1701814575.7,286047001.4,N
1701814595.6,286047000.0,N
1701814615.4,286047002.6,N
1701814635.2,286047001.0,N
1701814655.1,286046998.2,N
1701814656.0,286046998.2,N
1701814675.8,286046998.9,N
1701814695.6,286047001.2,N
1701814715.5,286047002.7,N
1701814735.3,286047004.3,N
1701814755.1,286047004.5,N
1701814775.9,286047008.8,Y
1701814795.7,286047012.4,P
1701814815.5,286047013.5,N
1701814835.4,286047012.6,N
1701814855.2,286047017.2,Y
1701814875.0,286047005.9,P
1701814875.9,286047005.9,N
1701814895.8,286047005.8,N
1701814915.6,286047006.0,Y
1701814935.4,286046998.9,P
1701814955.3,286047001.2,N
1701814975.1,286047003.9,N
1701814995.8,286047003.6,N
1701815015.7,286047003.8,N
1701815035.5,286047005.7,N
1701815055.3,286047005.0,N
1701815075.2,286047004.3,N
1701815095.0,286047003.2,N
1701815095.9,286047003.2,N
1701815115.7,286047004.0,N
1701815135.6,286047004.1,N
1701815155.4,286047005.5,N
1701815175.2,286047006.6,Y
1701815195.1,286047004.0,P
1701815196.0,286047004.0,P
1701815215.8,286047002.3,P
1701815235.6,286047000.5,N
1701815255.5,286047001.2,N
1701815275.3,286046999.5,N
1701815295.1,286046997.0,N
1701815315.9,286046999.6,N
1701815335.7,286047004.4,N
1701815355.5,286047003.2,N
1701815375.4,286047001.5,N
1701815395.2,286046998.5,N
1701815415.0,286047002.7,N
1701815415.9,286047002.7,N
1701815435.8,286047002.2,N
1701815455.6,286047002.3,N
1701815475.4,286047001.8,N
1701815495.3,286047001.3,N
1701815515.1,286047003.5,N
1701815535.8,286047002.0,N
1701815555.7,286047001.0,N
1701815575.5,286046999.0,N
1701815595.3,286047000.2,N
1701815615.2,286047002.6,N
1701815635.0,286046999.9,N
1701815635.9,286046999.9,N
1701815655.7,286047000.6,N
1701815675.6,286047006.0,Y
1701815695.4,286047002.0,P
1701815715.2,286047002.7,P
1701815735.1,286047001.7,P
1701815736.0,286047001.7,Y
1701815755.8,286047000.0,P
1701815775.6,286047001.0,N
1701815795.5,286047002.0,N
1701815815.3,286047000.5,N
1701815835.1,286047000.4,N
1701815855.9,286047001.1,N
1701815875.7,286047001.8,N
1701815895.5,286047001.4,N
1701815915.4,286047002.5,Y
1701815935.2,286047000.2,P
1701815955.0,286047002.8,P
1701815956.0,286047002.8,N
1701815975.8,286046995.5,Y
1701815995.6,286046990.8,P
1701816015.5,286046988.4,N
1701816035.3,286046983.9,N
1701816055.1,286046984.2,N
1701816075.9,286046981.0,N
1701816095.7,286046977.8,Y
1701816115.5,286046987.9,P
1701816135.4,286046986.6,P
1701816155.2,286046985.2,P
1701816175.0,286046984.1,Y
1701816175.9,286046984.1,P
1701816195.8,286046997.2,N
1701816215.6,286046997.6,N
1701816235.4,286046996.4,N
1701816255.3,286046992.0,N
1701816275.1,286046996.4,N
1701816276.0,286046996.4,N
1701816295.8,286046993.5,N
1701816315.7,286046990.1,N
1701816335.5,286046992.8,N
1701816355.3,286046992.9,N
1701816375.2,286046992.3,N
1701816395.9,286046990.1,N
1701816415.7,286046992.0,N
1701816435.6,286046993.2,N
1701816455.4,286046994.0,N
1701816475.2,286046992.1,N
1701816495.1,286046991.9,N
1701816496.0,286046991.9,N
1701816515.8,286046993.1,N
1701816535.6,286046990.2,Y
1701816555.5,286046997.6,P
1701816575.3,286046997.9,N
1701816595.1,286046996.1,N
1701816615.9,286046994.6,N
1701816635.7,286046991.7,Y
1701816655.5,286046996.9,P
1701816675.4,286046996.9,P
1701816695.2,286046997.5,P
1701816715.0,286046996.7,Y
1701816715.9,286046996.7,P
1701816735.8,286047000.4,P
1701816755.6,286046997.3,N
1701816775.4,286046997.5,N
1701816795.3,286046997.8,N
1701816815.1,286046997.3,N
1701816816.0,286046997.3,N
1701816835.8,286046997.5,N
1701816855.7,286046997.9,N
1701816875.5,286046995.2,Y
1701816895.3,286046999.5,P
1701816915.2,286046999.0,N
1701816935.9,286046998.4,N
1701816955.7,286047001.2,N
1701816975.6,286046998.5,N
1701816995.4,286047001.0,N
1701817015.2,286046998.2,N
1701817035.1,286046999.4,N
1701817036.0,286046999.4,N
1701817055.8,286046999.2,N
1701817075.6,286046999.9,N
1701817095.5,286047000.5,N
1701817115.3,286046999.4,N
1701817135.1,286046997.0,Y
1701817155.9,286046998.4,P
1701817175.7,286046999.0,N
1701817195.5,286046998.2,P
